Weather History for Dallas Redbird, TX

Change the Weather History Date:

Sunday, February 17, 2013

  Actual Average Record
Temperature  
Mean Temperature 54 °F -  
Max Temperature 70 °F 59 °F 78 °F (2000)
Min Temperature 37 °F 40 °F 28 °F (2001)
Degree Days  
Heating Degree Days 12    
Growing Degree Days 4 (Base 50)    
Moisture  
Dew Point 31 °F    
Average Humidity 44    
Maximum Humidity 70    
Minimum Humidity 21    
Precipitation  
Precipitation 0.00 in - - ()
Sea Level Pressure  
Sea Level Pressure 30.03 in    
Wind  
Wind Speed 9 mph (South)    
Max Wind Speed 17 mph    
Max Gust Speed 31 mph    
Visibility 10 miles    
Events      
Averages and records for this station are not official NWS values.
T = Trace of Precipitation, MM = Missing Value Source: NWS Daily Summary

Daily Weather History Graph

Daily Weather History Graph

Search for Another Location

Airport:

Trip Planner

Search our weather history database for the weather conditions in past years. The results will help you decide how hot, cold, wet, or windy it might be!

Date:

Astronomy

Feb. 17, 2013 Rise Set
Actual Time 7:08 AM CST 6:15 PM CST
Civil Twilight 6:43 AM CST 6:40 PM CST
Nautical Twilight 6:14 AM CST 7:09 PM CST
Astronomical Twilight 5:45 AM CST 7:37 PM CST
Moon 11:27 AM CST (2/17) 12:46 AM CST (2/17)
Length of Visible Light 11h 57m
Length of Day
11h 06m
Waxing Crescent, 49% of the Moon is Illuminated
Feb 17
Waxing Crescent
Feb 17
First Quarter
Feb 25
Full
Mar 4
Last Quarter
Mar 11
New

Hourly Weather History & Observations

Time (CST) Temp. Windchill Dew Point Humidity Pressure Visibility Wind Dir Wind Speed Gust Speed Precip Events Conditions
12:53 AM 39.9 °F 35.1 °F 28.0 °F 63% 30.16 in 10.0 mi SSE 6.9 mph - N/A   Clear
1:53 AM 39.9 °F 35.1 °F 28.9 °F 65% 30.14 in 10.0 mi SSE 6.9 mph - N/A   Clear
2:53 AM 39.9 °F 35.1 °F 28.9 °F 65% 30.12 in 10.0 mi SSE 6.9 mph - N/A   Clear
3:53 AM 37.9 °F 34.4 °F 28.9 °F 70% 30.10 in 10.0 mi SSE 4.6 mph - N/A   Clear
4:53 AM 39.9 °F 36.7 °F 30.0 °F 68% 30.09 in 10.0 mi South 4.6 mph - N/A   Clear
5:53 AM 42.1 °F 40.2 °F 30.0 °F 62% 30.09 in 10.0 mi South 3.5 mph - N/A   Clear
6:53 AM 42.1 °F 38.4 °F 30.0 °F 62% 30.09 in 10.0 mi South 5.8 mph - N/A   Clear
7:53 AM 43.0 °F 39.5 °F 30.0 °F 60% 30.10 in 10.0 mi South 5.8 mph - N/A   Clear
8:53 AM 50.0 °F - 30.9 °F 48% 30.10 in 10.0 mi South 6.9 mph - N/A   Clear
9:53 AM 59.0 °F - 28.0 °F 31% 30.10 in 10.0 mi SSW 8.1 mph 18.4 mph N/A   Clear
10:53 AM 61.0 °F - 28.9 °F 30% 30.09 in 10.0 mi SSW 9.2 mph 20.7 mph N/A   Clear
11:53 AM 64.9 °F - 30.0 °F 27% 30.07 in 10.0 mi South 9.2 mph 20.7 mph N/A   Clear
12:53 PM 68.0 °F - 30.0 °F 24% 30.02 in 10.0 mi SSW 10.4 mph 18.4 mph N/A   Clear
1:53 PM 70.0 °F - 28.0 °F 21% 29.98 in 10.0 mi South 15.0 mph 23.0 mph N/A   Clear
2:53 PM 70.0 °F - 28.9 °F 22% 29.95 in 10.0 mi South 16.1 mph 24.2 mph N/A   Clear
3:53 PM 70.0 °F - 30.0 °F 23% 29.94 in 10.0 mi South 17.3 mph 27.6 mph N/A   Clear
4:53 PM 68.0 °F - 28.9 °F 23% 29.92 in 10.0 mi South 13.8 mph 31.1 mph N/A   Clear
5:53 PM 66.0 °F - 32.0 °F 28% 29.91 in 10.0 mi South 15.0 mph 25.3 mph N/A   Clear
6:53 PM 63.0 °F - 33.1 °F 33% 29.92 in 10.0 mi South 16.1 mph 24.2 mph N/A   Clear
7:53 PM 62.1 °F - 35.1 °F 37% 29.92 in 10.0 mi South 16.1 mph 21.9 mph N/A   Clear
9:53 PM 60.1 °F - 42.1 °F 51% 29.92 in 10.0 mi South 15.0 mph 25.3 mph N/A   Clear
11:53 PM 57.9 °F - 45.0 °F 62% 29.90 in 10.0 mi South 13.8 mph 26.5 mph N/A   Clear